RADUGA-1M 2 [+]

Last updated on July 6, 2021, 3:35 p.m. UTC

1 36358U 10002A   21186.80746611 -.00000174  00000-0  00000-0 0  9992
2 36358   0.0808 249.5429 0002998 227.6717 182.4699  1.00270908 31974
UTC
Height (km)
Latitude
Longitude
Inclination
Orbital Period
UTC large
Height (km)
Speed (km/s)
/
Latitude / Longitude
Inclination (degrees)
Orbital Period (minutes)
Azimuth
Elevation
Range (km)
Doppler Factor
iOS Compass Heading
iOS Angle